Total_Precipitation_Accumulation
3.19 3.47 3.31 3.14 3.16 3.13 3.43 3.78 3.82 3.37 2.98 2.75 2.55 2.43 2.37 2.33 2.43 2.25 2.23 2.27 2.04 1.88 1.77 1.68 1.67 1.65 1.74 1.88 2.10 2.35 2.55 2.73 2.91 3.07 3.31 3.58 3.90 4.21
3.07 3.22 3.21 3.13 3.34 3.34 3.45 3.74 3.99 3.90 3.23 2.94 2.80 2.46 2.49 2.08 2.25 2.11 2.10 2.11 1.88 1.75 1.66 1.64 1.64 1.65 1.63 1.63 1.70 1.83 2.00 2.16 2.30 2.41 2.48 2.56 2.71 2.95
2.62 2.72 2.71 2.97 3.18 3.17 3.38 3.55 3.80 4.08 3.59 3.24 3.25 2.96 2.90 2.61 2.35 2.12 1.90 1.86 1.73 1.71 1.58 1.53 1.51 1.53 1.57 1.50 1.46 1.52 1.64 1.78 1.89 2.03 2.22 2.34 2.37 2.44
2.48 2.58 2.44 2.68 2.83 2.90 3.13 3.29 3.57 4.02 3.82 3.47 3.35 3.22 3.11 2.89 2.66 2.39 1.90 1.66 1.69 1.81 1.65 1.52 1.47 1.45 1.46 1.41 1.35 1.31 1.33 1.39 1.47 1.60 1.79 1.98 2.11 2.25
2.30 2.24 2.17 2.39 2.46 2.66 2.85 2.86 3.07 3.49 3.59 3.25 3.08 3.30 3.17 2.97 3.02 2.63 2.29 2.20 1.71 1.72 1.65 1.49 1.44 1.37 1.35 1.37 1.35 1.26 1.22 1.22 1.25 1.37 1.58 1.77 1.90 1.99
2.02 1.93 1.96 2.15 2.17 2.34 2.42 2.63 2.86 2.98 3.20 3.13 2.98 3.09 3.11 3.04 3.23 3.00 2.79 2.61 2.20 1.80 1.80 1.60 1.49 1.42 1.34 1.29 1.29 1.29 1.31 1.30 1.30 1.35 1.43 1.55 1.73 1.84
1.76 1.64 1.58 1.61 1.71 1.91 1.88 2.18 2.50 2.61 2.69 2.82 2.82 2.92 3.13 3.28 3.14 3.14 2.98 2.81 2.58 2.31 2.27 1.89 1.60 1.39 1.32 1.30 1.30 1.35 1.40 1.43 1.45 1.51 1.60 1.66 1.73 1.81
1.72 1.70 1.52 1.42 1.44 1.53 1.57 1.67 1.93 2.09 2.28 2.54 2.62 2.69 2.91 3.20 3.30 3.31 3.21 2.99 2.75 2.52 2.64 2.59 2.21 1.87 1.61 1.35 1.35 1.37 1.45 1.56 1.61 1.69 1.78 1.90 2.02 2.03
1.70 1.67 1.40 1.29 1.38 1.34 1.45 1.49 1.58 1.68 1.80 2.07 2.19 2.22 2.49 2.84 3.23 3.26 3.31 3.09 2.84 2.80 2.90 2.90 2.96 2.67 2.05 1.69 1.64 1.44 1.47 1.58 1.65 1.72 1.79 1.84 1.99 2.16
1.61 1.66 1.64 1.59 1.50 1.54 1.57 1.48 1.37 1.40 1.47 1.44 1.55 1.82 2.03 2.33 2.76 2.91 3.17 3.33 3.15 3.04 3.07 3.11 3.16 3.37 2.84 2.25 2.09 1.79 1.70 1.72 1.78 1.80 1.83 1.90 1.97 2.07
1.64 1.67 1.66 1.59 1.60 1.58 1.56 1.53 1.40 1.35 1.36 1.37 1.37 1.54 1.78 1.94 2.26 2.61 2.88 3.11 3.16 3.22 3.29 3.35 3.27 3.45 3.67 3.16 2.48 2.15 1.88 1.78 1.81 1.87 1.93 2.01 2.07 2.10
1.73 1.72 1.64 1.54 1.64 1.54 1.40 1.45 1.44 1.48 1.54 1.49 1.51 1.56 1.60 1.76 2.08 2.32 2.58 2.89 2.92 2.99 2.84 2.87 2.91 3.09 3.50 3.62 3.19 2.54 2.08 1.93 1.84 1.79 1.82 1.91 2.07 1.91
1.75 1.78 1.76 1.68 1.41 1.34 1.31 1.33 1.43 1.52 1.59 1.63 1.63 1.69 1.81 1.87 1.91 2.07 2.34 2.61 2.71 2.51 2.31 2.51 2.71 2.86 2.95 3.06 3.17 3.04 2.58 2.25 2.06 1.88 1.84 1.82 1.86 1.81
2.02 2.00 1.96 1.78 1.49 1.37 1.28 1.34 1.46 1.42 1.42 1.55 1.55 1.53 1.63 1.75 1.86 2.04 2.23 2.35 2.41 2.41 2.43 2.61 2.71 2.74 2.86 2.87 2.87 2.89 2.85 2.66 2.47 2.34 2.27 2.26 2.05 1.97
2.22 2.24 2.13 1.89 1.63 1.41 1.35 1.35 1.34 1.28 1.29 1.39 1.37 1.35 1.42 1.55 1.68 1.89 2.11 2.30 2.34 2.25 2.28 2.43 2.55 2.58 2.73 2.77 2.66 2.55 2.64 2.71 2.69 2.65 2.68 2.65 2.47 2.29
2.35 2.29 2.19 1.99 1.71 1.55 1.47 1.38 1.27 1.32 1.35 1.34 1.37 1.40 1.52 1.65 1.77 1.86 2.05 2.23 2.39 2.30 2.24 2.27 2.37 2.56 2.54 2.38 2.32 2.14 2.14 2.25 2.39 2.56 2.75 2.94 2.95 2.83
2.48 2.32 2.22 2.01 1.81 1.71 1.62 1.54 1.50 1.49 1.42 1.37 1.43 1.45 1.49 1.58 1.67 1.71 1.85 1.95 2.00 2.00 2.08 2.19 2.36 2.53 2.53 2.44 2.30 2.04 1.99 1.93 2.00 2.31 2.64 2.85 2.84 2.68
1.97 1.90 1.94 1.88 1.79 1.71 1.66 1.59 1.58 1.50 1.46 1.44 1.47 1.45 1.43 1.46 1.56 1.68 1.79 1.84 1.82 1.81 1.91 2.03 2.30 2.55 2.58 2.37 2.00 1.86 1.85 1.82 1.86 2.10 2.29 2.37 2.32 2.19
1.67 1.68 1.65 1.63 1.61 1.60 1.59 1.55 1.51 1.48 1.52 1.55 1.52 1.53 1.56 1.56 1.56 1.68 1.82 1.90 1.86 1.84 1.94 2.12 2.29 2.44 2.39 2.13 1.86 1.62 1.67 1.73 1.89 2.05 2.11 2.07 1.94 1.78
1.56 1.61 1.61 1.60 1.59 1.62 1.65 1.61 1.61 1.61 1.64 1.67 1.68 1.71 1.75 1.75 1.77 1.78 1.85 1.92 1.89 1.89 1.97 2.10 2.14 2.17 2.19 2.09 1.96 1.75 1.53 1.61 1.72 1.81 1.88 1.92 1.81 1.64
1.65 1.71 1.72 1.74 1.75 1.79 1.79 1.75 1.76 1.71 1.67 1.73 1.74 1.76 1.77 1.80 1.88 1.89 1.94 2.01 1.95 1.88 1.84 1.86 1.94 2.10 2.27 2.50 2.33 1.93 1.72 1.67 1.72 1.77 1.86 1.98 1.95 1.87
1.66 1.70 1.75 1.79 1.84 1.84 1.79 1.76 1.79 1.76 1.73 1.74 1.72 1.72 1.74 1.74 1.76 1.84 1.87 1.89 1.87 1.82 1.78 1.84 2.09 2.31 2.39 2.45 2.28 2.06 1.98 1.92 1.90 1.87 1.79 1.72 1.73 1.71
1.68 1.73 1.73 1.70 1.69 1.67 1.62 1.62 1.71 1.74 1.76 1.77 1.75 1.72 1.72 1.72 1.73 1.82 1.89 1.91 1.91 1.94 1.95 2.01 2.11 2.23 2.30 2.33 2.37 2.30 2.14 2.06 2.05 2.00 1.87 1.65 1.35 1.19